Home > Weather > Olongapo > Past weeks

Flag for Philippines Weather for the Past 2 Weeks in Olongapo, Philippines

Now
90 °F

Thunderstorms. Partly sunny.


Feels Like: 103 °F
Forecast: 80 / 95 °F
Wind: 13 mph from Southwest

Location: Subic Bay Weather Station

Current Time: Apr 29, 2016 at 4:34:05 PM

Latest Report: Apr 29, 2016 at 3:00 PM


Visibility: N/A

Pressure: 29.77 "Hg

Humidity: 67%

Dew Point: 77 °F

Location of OlongapoLocation

Historic Weather in Olongapo — Graph

°F

Olongapo Temperature Yesterday

Maximum temperature yesterday: 91 °F (at 9:00 AM)
Minimum temperature yesterday: 82 °F (at 1:00 AM)
Average temperature yesterday: 86 °F

High & Low Weather Summary for the Past Weeks

 TemperatureHumidityPressure
High100 °F (Apr 17, 2:00 PM)89% (Apr 15, 3:00 AM)29.92 "Hg (Apr 15, 3:00 AM)
Low75 °F (Apr 27, 5:00 AM)33% (Apr 18, 1:00 PM)29.71 "Hg (Apr 27, 3:00 PM)
Average87 °F66%29.82 "Hg
* Reported Apr 14 3:00 PM — Apr 29 3:00 PM, Olongapo, Weather by CustomWeather, © 2016

Note: Actual official high and low records may vary slightly from our data, if they occured in-between our weather recording intervals... More about our weather records

Advertising

Olongapo Weather History for the Previous 24 Hours

Scroll right to see more
 ConditionsComfort  
Time TempWeatherWind HumidityBarometerVisibility
3:00 PM
Fri, Apr 29
90 °FThunderstorms. Partly sunny.13 mph67%29.77 "HgN/A
2:00 PM90 °FPartly sunny.14 mph67%29.77 "HgN/A
1:00 PM91 °FPartly sunny.13 mph59%29.83 "HgN/A
12:00 PM91 °FPartly sunny.13 mph59%29.83 "HgN/A
11:00 AM91 °FPartly sunny.9 mph56%29.83 "HgN/A
10:00 AM91 °FPartly sunny.No wind56%29.83 "HgN/A
9:00 AM90 °FPartly sunny.No wind59%29.83 "HgN/A
8:00 AM88 °FBroken clouds.2 mph62%29.83 "HgN/A
7:00 AM82 °FPartly sunny.8 mph70%29.83 "HgN/A
6:00 AM81 °FPartly sunny.7 mph74%29.80 "HgN/A
5:00 AM81 °FPassing clouds.2 mph74%29.80 "HgN/A
4:00 AM81 °FPassing clouds.No wind74%29.77 "HgN/A
2:00 AM82 °FPassing clouds.7 mph70%29.77 "HgN/A
1:00 AM82 °FPassing clouds.2 mph74%29.80 "HgN/A
12:00 AM86 °FPartly cloudy.No wind66%29.83 "HgN/A
11:00 PM
Thu, Apr 28
86 °FPassing clouds.3 mph66%29.83 "HgN/A
10:00 PM86 °FPartly cloudy.5 mph66%29.83 "HgN/A
9:00 PM86 °FPartly cloudy.1 mph66%29.80 "HgN/A
8:00 PM86 °FPassing clouds.2 mph70%29.80 "HgN/A
7:00 PM86 °FPassing clouds.5 mph70%29.77 "HgN/A
6:00 PM88 °FPartly sunny.7 mph66%29.77 "HgN/A
5:00 PM88 °FPartly sunny.3 mph62%29.74 "HgN/A
4:00 PM88 °FPartly sunny.12 mph66%29.74 "HgN/A
Weather by CustomWeather, © 2016

See weather overviewHow to use our weather pages